DELTA 1 DEB, 10626

Orbit data source: Space-Track

DELTA 1 DEB, 10626 is space debris in LEO originally from a launch on Thu, 14 Jul 1977 UTC launched from the Air Force Eastern Test Range (AFETR). Debris objects in space refer to the collection of defunct objects orbiting the Earth. Examples of debris include non-operational satellites, rocket bodies, and fragments generated from explosions, collisions, or faulty payload assembly.

Loading next visibility...
Identifier
10626, 1977-065EV
Orbit
LEO
Country
Flag of USUS
Related business
Manufacturer
Unknown
Mission
Spacecraft
Bus & Motor
Unknown
Mass
Unknown
Launch date (UTC)
1977-07-14 (49 years ago)
Launch vehicle
Unknown
Launch site
Air Force Eastern Test Range (AFETR)
Object type
Payload
Rocket body
Debris
Shape & HBR
Unknown shape, 0.1 m
Radar Cross Section
Small (<0.1 m²)

Expand to show TLE details & history
Last TLE update: 21 hours ago

TLE from 21 hours ago
0 DELTA 1 DEB
1 10626U 77065EV  26132.55228102  .00000656  00000-0  13294-3 0  9998
2 10626  29.1786 309.8620 0655189 305.4368  48.6719 13.68149419377739
Epoch: 2026-05-12T13:15Z
TLE epoch observation values (Epoch: 2026-05-12T13:15:17.080Z)
Latitude
-0.00001°
Longitude
-119.2842°
Altitude
704.316 km
Speed
7.657 km/s
True Right ascension
20h 39m 26s
True Declination
0° 00' 00"
Sunlit
Object was in daylight at epoch
Visualization orbit readout
Latitude
Unknown
Longitude
Unknown
Altitude
Unknown
Speed
Unknown
Apparent Right ascension
Unknown
Apparent Declination
Unknown
Sunlit
N/A
Visualization observer readout
Local Sidereal Time
18:21:27
Azimuth
Unknown
Elevation
Unknown
Doppler factor
Unknown
Orbital elements
Apogee altitude
1,494.16 km
Perigee altitude
526.022 km
Semi-major axis
7,388.228 km
Eccentricity
0.06552
Inclination
29.1786°
RAAN
309.862°
Arg. of periapsis
305.4368°
True anomaly
54.62068°
Mean anomaly
48.6719°
Eccentric anomaly
51.61444°
Mean motion
3.41769 °/min
Orbital period
105.33 mins
BSTAR
0.00013294
Loading maneuver chart data...
Computing Atmospheric mass density...

Documentation

Showing up to 5 results
|